TimeEST,TemperatureF,Dew PointF,Humidity,Sea Level PressureIn,VisibilityMPH,Wind Direction,Wind SpeedMPH,Gust SpeedMPH,PrecipitationIn,Events,Conditions,WindDirDegrees,DateUTC
12:15 AM,51.8,51.8,100,30.41,1.2,Calm,Calm,-,N/A,,Mist,0,2013-01-10 05:15:00
12:35 AM,51.8,51.8,100,30.41,4.0,Calm,Calm,-,N/A,,Clear,0,2013-01-10 05:35:00
12:55 AM,51.8,51.8,100,30.41,5.0,Calm,Calm,-,N/A,,Scattered Clouds,0,2013-01-10 05:55:00
1:15 AM,50.0,50.0,100,30.42,5.0,Calm,Calm,-,N/A,,Mostly Cloudy,0,2013-01-10 06:15:00
1:35 AM,51.8,51.8,100,30.42,7.0,Calm,Calm,-,N/A,,Mostly Cloudy,0,2013-01-10 06:35:00
1:55 AM,50.0,50.0,100,30.43,3.0,Calm,Calm,-,N/A,,Overcast,0,2013-01-10 06:55:00
3:15 AM,50.0,50.0,100,30.42,2.0,Calm,Calm,-,N/A,,Mostly Cloudy,0,2013-01-10 08:15:00
3:35 AM,50.0,50.0,100,30.42,1.0,Calm,Calm,-,N/A,,Overcast,0,2013-01-10 08:35:00
3:55 AM,50.0,50.0,100,30.42,1.0,Calm,Calm,-,N/A,,Mostly Cloudy,0,2013-01-10 08:55:00
4:15 AM,50.0,50.0,100,30.42,3.0,Calm,Calm,-,N/A,,Clear,0,2013-01-10 09:15:00
4:35 AM,50.0,50.0,100,30.41,5.0,Calm,Calm,-,N/A,,Scattered Clouds,0,2013-01-10 09:35:00
4:55 AM,50.0,50.0,100,30.41,5.0,Calm,Calm,-,N/A,,Scattered Clouds,0,2013-01-10 09:55:00
5:15 AM,50.0,50.0,100,30.42,5.0,Calm,Calm,-,N/A,,Scattered Clouds,0,2013-01-10 10:15:00
5:35 AM,50.0,50.0,100,30.41,5.0,Calm,Calm,-,N/A,,Clear,0,2013-01-10 10:35:00
5:55 AM,50.0,50.0,100,30.41,4.0,Calm,Calm,-,N/A,,Clear,0,2013-01-10 10:55:00
6:15 AM,48.2,48.2,100,30.43,5.0,Calm,Calm,-,N/A,,Scattered Clouds,0,2013-01-10 11:15:00
6:35 AM,48.2,48.2,100,30.43,5.0,Calm,Calm,-,N/A,,Clear,0,2013-01-10 11:35:00
6:55 AM,48.2,48.2,100,30.44,4.0,Calm,Calm,-,N/A,,Clear,0,2013-01-10 11:55:00
7:15 AM,48.2,48.2,100,30.45,5.0,Calm,Calm,-,N/A,,Clear,0,2013-01-10 12:15:00
7:35 AM,46.4,46.4,100,30.46,1.5,Calm,Calm,-,N/A,,Mist,0,2013-01-10 12:35:00
7:55 AM,46.4,46.4,100,30.47,4.0,Calm,Calm,-,N/A,,Clear,0,2013-01-10 12:55:00
8:15 AM,50.0,50.0,100,30.48,4.0,Calm,Calm,-,N/A,,Clear,0,2013-01-10 13:15:00
8:35 AM,53.6,53.6,100,30.48,5.0,NNE,4.6,-,N/A,,Clear,30,2013-01-10 13:35:00
8:55 AM,57.2,55.4,94,30.48,4.0,NE,8.1,-,N/A,,Clear,40,2013-01-10 13:55:00
9:15 AM,60.8,55.4,82,30.48,5.0,NE,9.2,-,N/A,,Haze,40,2013-01-10 14:15:00
9:35 AM,62.6,53.6,72,30.48,7.0,NE,10.4,-,N/A,,Clear,50,2013-01-10 14:35:00
9:55 AM,62.6,53.6,72,30.48,7.0,NE,8.1,-,N/A,,Clear,50,2013-01-10 14:55:00
10:15 AM,64.4,53.6,68,30.48,7.0,NE,9.2,-,N/A,,Clear,50,2013-01-10 15:15:00
10:35 AM,66.2,53.6,64,30.47,7.0,NE,9.2,-,N/A,,Clear,50,2013-01-10 15:35:00
10:55 AM,68.0,53.6,60,30.46,7.0,NNE,10.4,-,N/A,,Clear,30,2013-01-10 15:55:00
11:15 AM,68.0,53.6,60,30.45,7.0,NE,9.2,-,N/A,,Clear,50,2013-01-10 16:15:00
11:35 AM,69.8,53.6,56,30.44,7.0,NE,9.2,-,N/A,,Clear,50,2013-01-10 16:35:00
11:55 AM,69.8,53.6,56,30.43,7.0,ENE,4.6,-,N/A,,Clear,70,2013-01-10 16:55:00
12:15 PM,69.8,53.6,56,30.42,7.0,ENE,9.2,-,N/A,,Clear,60,2013-01-10 17:15:00
12:35 PM,69.8,53.6,56,30.42,7.0,ENE,6.9,-,N/A,,Clear,60,2013-01-10 17:35:00
12:55 PM,71.6,53.6,53,30.40,7.0,NNE,6.9,-,N/A,,Clear,30,2013-01-10 17:55:00
1:15 PM,71.6,53.6,53,30.40,7.0,ENE,6.9,-,N/A,,Clear,60,2013-01-10 18:15:00
1:35 PM,71.6,53.6,53,30.40,7.0,ENE,3.5,-,N/A,,Clear,60,2013-01-10 18:35:00
1:55 PM,71.6,55.4,57,30.41,7.0,SE,6.9,-,N/A,,Clear,130,2013-01-10 18:55:00
2:15 PM,71.6,53.6,53,30.41,7.0,SE,6.9,-,N/A,,Clear,140,2013-01-10 19:15:00
2:35 PM,69.8,53.6,56,30.41,7.0,SE,6.9,-,N/A,,Clear,130,2013-01-10 19:35:00
2:55 PM,69.8,51.8,53,30.42,7.0,SE,6.9,-,N/A,,Clear,130,2013-01-10 19:55:00
3:15 PM,68.0,51.8,56,30.42,7.0,East,6.9,-,N/A,,Clear,100,2013-01-10 20:15:00
3:35 PM,68.0,51.8,56,30.42,7.0,East,5.8,-,N/A,,Clear,100,2013-01-10 20:35:00
3:55 PM,68.0,51.8,56,30.42,7.0,East,8.1,-,N/A,,Clear,90,2013-01-10 20:55:00
4:15 PM,66.2,51.8,60,30.43,7.0,ESE,6.9,-,N/A,,Clear,110,2013-01-10 21:15:00
4:35 PM,64.4,50.0,59,30.42,7.0,East,4.6,-,N/A,,Clear,90,2013-01-10 21:35:00
4:55 PM,64.4,50.0,59,30.42,7.0,ENE,9.2,-,N/A,,Scattered Clouds,70,2013-01-10 21:55:00
5:15 PM,64.4,50.0,59,30.42,7.0,ENE,4.6,-,N/A,,Overcast,60,2013-01-10 22:15:00
5:35 PM,62.6,50.0,63,30.41,10.0,ENE,4.6,-,N/A,,Overcast,60,2013-01-10 22:35:00
5:55 PM,62.6,50.0,63,30.42,7.0,NE,3.5,-,N/A,,Overcast,50,2013-01-10 22:55:00
6:15 PM,62.6,50.0,63,30.43,7.0,ENE,4.6,-,N/A,,Overcast,70,2013-01-10 23:15:00
6:35 PM,62.6,50.0,63,30.42,10.0,ENE,6.9,-,N/A,,Overcast,60,2013-01-10 23:35:00
6:55 PM,62.6,51.8,68,30.43,7.0,ENE,5.8,-,N/A,,Overcast,60,2013-01-10 23:55:00
7:15 PM,62.6,51.8,68,30.42,10.0,ENE,8.1,-,N/A,,Overcast,60,2013-01-11 00:15:00
7:35 PM,60.8,51.8,72,30.43,7.0,ENE,5.8,-,N/A,,Overcast,60,2013-01-11 00:35:00
7:55 PM,60.8,50.0,68,30.43,7.0,NE,5.8,-,N/A,,Overcast,50,2013-01-11 00:55:00
8:15 PM,60.8,50.0,68,30.43,10.0,NE,4.6,-,N/A,,Overcast,50,2013-01-11 01:15:00
8:35 PM,59.0,44.6,59,30.43,10.0,NE,8.1,-,N/A,,Overcast,50,2013-01-11 01:35:00
8:55 PM,59.0,42.8,55,30.42,7.0,ENE,6.9,-,N/A,,Overcast,70,2013-01-11 01:55:00
9:15 PM,59.0,42.8,55,30.42,7.0,ENE,6.9,-,N/A,,Overcast,60,2013-01-11 02:15:00
9:55 PM,59.0,42.8,55,30.41,7.0,ENE,5.8,-,N/A,,Overcast,60,2013-01-11 02:55:00
10:15 PM,59.0,42.8,55,30.40,7.0,ENE,5.8,-,N/A,,Overcast,60,2013-01-11 03:15:00
10:35 PM,59.0,42.8,55,30.40,7.0,ENE,3.5,-,N/A,,Overcast,70,2013-01-11 03:35:00
10:55 PM,59.0,42.8,55,30.40,7.0,ENE,4.6,-,N/A,,Overcast,70,2013-01-11 03:55:00
11:15 PM,57.2,42.8,59,30.39,10.0,ENE,6.9,-,N/A,,Overcast,60,2013-01-11 04:15:00
11:35 PM,57.2,44.6,63,30.39,7.0,ENE,4.6,-,N/A,,Overcast,60,2013-01-11 04:35:00
11:55 PM,57.2,44.6,63,30.39,7.0,NE,5.8,-,N/A,,Overcast,50,2013-01-11 04:55:00